EW5393 Weather Reports


Display with metric or nautical units.
time (UTC)temp
F
wind
direction
speed
MPH
gust
MPH
rain 1hr
in
rain 24hr
in
rain mn
in
humidity
%
barometer
mb
20200814204306 78 220 5.0 7.0 0.00 0.00 0.00 30 1014.9
20200814203805 78 215 6.0 9.0 0.00 0.00 0.00 30 1015.0
20200814203305 78 209 5.0 8.0 0.00 0.00 0.00 30 1015.0
20200814202807 79 236 4.0 7.0 0.00 0.00 0.00 29 1015.0
20200814202306 79 182 5.0 9.0 0.00 0.00 0.00 29 1015.0
20200814201806 79 346 4.0 8.0 0.00 0.00 0.00 29 1015.0
20200814201305 79 283 4.0 7.0 0.00 0.00 0.00 29 1015.0
20200814200805 78 318 4.0 7.0 0.00 0.00 0.00 31 1015.0
20200814200306 79 329 6.0 8.0 0.00 0.00 0.00 29 1015.0
20200814195805 78 33 5.0 10.0 0.00 0.00 0.00 30 1015.0
20200814195306 78 238 6.0 7.0 0.00 0.00 0.00 29 1015.0
20200814194804 78 316 6.0 8.0 0.00 0.00 0.00 28 1015.1
20200814194312 79 294 5.0 8.0 0.00 0.00 0.00 28 1015.1
20200814193804 79 280 5.0 8.0 0.00 0.00 0.00 28 1015.1
20200814193305 79 332 6.0 9.0 0.00 0.00 0.00 29 1015.1
20200814192805 78 154 5.0 7.0 0.00 0.00 0.00 30 1015.1
20200814192305 77 346 5.0 7.0 0.00 0.00 0.00 30 1015.1
20200814191807 76 270 5.0 8.0 0.00 0.00 0.00 32 1015.1
20200814191305 75 223 3.0 8.0 0.00 0.00 0.00 32 1015.0
20200814190806 76 203 6.0 7.0 0.00 0.00 0.00 31 1015.0
20200814190315 77 1 3.0 8.0 0.00 0.00 0.00 30 1015.1
20200814185805 78 229 6.0 8.0 0.00 0.00 0.00 30 1015.1
20200814185305 78 238 5.0 6.0 0.00 0.00 0.00 30 1015.1
20200814184807 77 211 5.0 7.0 0.00 0.00 0.00 31 1015.1
20200814184305 77 204 4.0 6.0 0.00 0.00 0.00 31 1015.1
20200814183806 77 214 6.0 7.0 0.00 0.00 0.00 31 1015.2
20200814183305 77 225 3.0 5.0 0.00 0.00 0.00 32 1015.2
20200814182806 78 223 3.0 8.0 0.00 0.00 0.00 30 1015.2
20200814182305 78 281 5.0 9.0 0.00 0.00 0.00 30 1015.2
20200814181805 80 336 4.0 6.0 0.00 0.00 0.00 28 1015.2
20200814181305 79 248 3.0 6.0 0.00 0.00 0.00 29 1015.4
20200814180804 79 148 2.0 5.0 0.00 0.00 0.00 29 1015.4
20200814180304 78 14 3.0 6.0 0.00 0.00 0.00 28 1015.5
20200814175804 79 42 3.0 6.0 0.00 0.00 0.00 27 1015.5
20200814175305 78 293 4.0 6.0 0.00 0.00 0.00 28 1015.5
20200814174805 78 309 6.0 7.0 0.00 0.00 0.00 28 1015.4
20200814174304 77 314 3.0 7.0 0.00 0.00 0.00 29 1015.4
20200814173804 78 81 4.0 7.0 0.00 0.00 0.00 28 1015.6
20200814173305 78 238 3.0 7.0 0.00 0.00 0.00 29 1015.6
20200814172807 77 313 4.0 6.0 0.00 0.00 0.00 30 1015.6
20200814172306 77 32 3.0 5.0 0.00 0.00 0.00 29 1015.6
20200814171804 75 358 3.0 6.0 0.00 0.00 0.00 31 1015.6
20200814171304 75 259 3.0 6.0 0.00 0.00 0.00 30 1015.9
20200814170805 75 354 4.0 8.0 0.00 0.00 0.00 31 1015.9
20200814170312 77 347 5.0 6.0 0.00 0.00 0.00 29 1015.9
20200814165305 76 47 3.0 6.0 0.00 0.00 0.00 31 1015.9
20200814164805 75 22 3.0 5.0 0.00 0.00 0.00 33 1015.7
20200814164305 75 326 3.0 5.0 0.00 0.00 0.00 32 1015.7
20200814163805 74 131 3.0 3.0 0.00 0.00 0.00 34 1016.0
20200814163306 74 251 3.0 3.0 0.00 0.00 0.00 35 1016.0
20200814162804 76 357 2.0 3.0 0.00 0.00 0.00 32 1016.0
20200814162305 74 238 2.0 3.0 0.00 0.00 0.00 35 1016.0
20200814161805 74 82 2.0 3.0 0.00 0.00 0.00 33 1016.0
20200814161308 73 172 2.0 3.0 0.00 0.00 0.00 37 1016.0
20200814160805 73 347 2.0 3.0 0.00 0.00 0.00 36 1016.0
20200814160305 71 218 1.0 3.0 0.00 0.00 0.00 40 1016.0
20200814155805 70 192 3.0 3.0 0.00 0.00 0.00 42 1016.0
20200814155305 70 169 2.0 3.0 0.00 0.00 0.00 41 1016.0
20200814154805 70 202 2.0 3.0 0.00 0.00 0.00 42 1016.1
20200814154306 68 219 2.0 3.0 0.00 0.00 0.00 43 1016.1
20200814153804 68 167 2.0 3.0 0.00 0.00 0.00 45 1016.2
20200814153306 68 184 2.0 3.0 0.00 0.00 0.00 44 1016.2
20200814152807 66 47 1.0 2.0 0.00 0.00 0.00 46 1016.2
20200814152306 67 46 2.0 2.0 0.00 0.00 0.00 45 1016.3
20200814151805 67 202 2.0 2.0 0.00 0.00 0.00 47 1016.3
20200814151306 66 315 1.0 3.0 0.00 0.00 0.00 47 1016.1
20200814150805 67 34 2.0 3.0 0.00 0.00 0.00 45 1016.1
20200814150306 66 299 2.0 3.0 0.00 0.00 0.00 46 1016.4
20200814145805 65 358 3.0 5.0 0.00 0.00 0.00 46 1016.4
20200814145305 64 27 2.0 3.0 0.00 0.00 0.00 49 1016.4
20200814144805 63 314 2.0 3.0 0.00 0.00 0.00 50 1016.2
20200814144305 62 103 2.0 3.0 0.00 0.00 0.00 51 1016.2
20200814143805 60 284 2.0 3.0 0.00 0.00 0.00 53 1016.2
20200814143306 60 290 2.0 3.0 0.00 0.00 0.00 52 1016.2
20200814142806 59 69 3.0 5.0 0.00 0.00 0.00 53 1016.2
20200814142306 58 64 2.0 5.0 0.00 0.00 0.00 54 1016.3
20200814141805 57 294 4.0 5.0 0.00 0.00 0.00 55 1016.3
20200814141305 56 61 2.0 5.0 0.00 0.00 0.00 55 1016.1
20200814140805 56 242 3.0 3.0 0.00 0.00 0.00 55 1016.1
20200814140305 55 192 3.0 3.0 0.00 0.00 0.00 55 1016.2
20200814135805 54 331 3.0 5.0 0.00 0.00 0.00 56 1016.2
20200814135305 53 282 3.0 6.0 0.00 0.00 0.00 58 1016.2
20200814134805 51 353 2.0 5.0 0.00 0.00 0.00 62 1016.2
20200814134305 49 293 3.0 3.0 0.00 0.00 0.00 64 1016.2
20200814133805 48 268 2.0 3.0 0.00 0.00 0.00 66 1016.1
20200814133305 48 354 2.0 3.0 0.00 0.00 0.00 67 1016.1
20200814132806 47 0 2.0 2.0 0.00 0.00 0.00 67 1016.1
20200814132305 47 29 2.0 2.0 0.00 0.00 0.00 67 1016.0
20200814131806 48 270 3.0 3.0 0.00 0.00 0.00 67 1016.0
20200814131306 48 320 2.0 5.0 0.00 0.00 0.00 67 1015.7
20200814130805 47 43 2.0 3.0 0.00 0.00 0.00 69 1015.7
20200814130304 46 353 3.0 3.0 0.00 0.00 0.00 71 1015.8
20200814125806 44 30 2.0 2.0 0.00 0.00 0.00 74 1015.8
20200814125308 44 308 1.0 1.0 0.00 0.00 0.00 75 1015.8
20200814124806 43 66 1.0 2.0 0.00 0.00 0.00 76 1015.5
20200814124306 43 22 2.0 2.0 0.00 0.00 0.00 76 1015.5
20200814123808 43 22 0.0 1.0 0.00 0.00 0.00 77 1015.6
20200814123306 43 35 1.0 2.0 0.00 0.00 0.00 77 1015.6
20200814122805 43 212 2.0 3.0 0.00 0.00 0.00 78 1015.6
20200814122305 43 280 2.0 3.0 0.00 0.00 0.00 78 1015.6
20200814121806 43 114 0.0 3.0 0.00 0.00 0.00 78 1015.6
20200814121306 43 322 4.0 6.0 0.00 0.00 0.00 78 1015.4
20200814120807 43 22 1.0 2.0 0.00 0.00 0.00 78 1015.4
20200814120306 43 22 0.0 0.0 0.00 0.00 0.00 78 1015.4
20200814115806 44 22 0.0 0.0 0.00 0.00 0.00 78 1015.4
20200814115307 44 22 0.0 0.0 0.00 0.00 0.00 78 1015.4
20200814114806 44 17 0.0 2.0 0.00 0.00 0.00 78 1015.2
20200814114308 44 7 2.0 2.0 0.00 0.00 0.00 78 1015.2
20200814113807 44 13 0.0 1.0 0.00 0.00 0.00 78 1015.3
20200814113307 44 9 1.0 2.0 0.00 0.00 0.00 78 1015.3
20200814112806 44 308 1.0 1.0 0.00 0.00 0.00 79 1015.3
20200814112307 44 22 0.0 0.0 0.00 0.00 0.00 77 1015.1
20200814111807 44 319 1.0 1.0 0.00 0.00 0.00 77 1015.1
20200814111307 44 0 1.0 1.0 0.00 0.00 0.00 77 1015.2
20200814110806 44 11 2.0 2.0 0.00 0.00 0.00 77 1015.2
20200814110306 45 355 1.0 2.0 0.00 0.00 0.00 77 1015.1
20200814105806 45 329 1.0 3.0 0.00 0.00 0.00 77 1015.1
20200814105306 45 0 0.0 1.0 0.00 0.00 0.00 76 1015.1
20200814104810 45 16 1.0 2.0 0.00 0.00 0.00 76 1014.9
20200814104307 45 344 1.0 1.0 0.00 0.00 0.00 76 1014.9
20200814103808 45 5 1.0 1.0 0.00 0.00 0.00 76 1014.9
20200814103309 46 27 2.0 2.0 0.00 0.00 0.00 76 1014.9
20200814102806 46 11 2.0 2.0 0.00 0.00 0.00 76 1014.9
20200814102309 46 37 2.0 2.0 0.00 0.00 0.00 75 1014.9
20200814101806 46 12 1.0 2.0 0.00 0.00 0.00 75 1014.9
20200814100809 46 339 2.0 2.0 0.00 0.00 0.00 75 1014.7
20200814100306 46 13 3.0 3.0 0.00 0.00 0.00 75 1014.7
20200814095807 46 22 0.0 1.0 0.00 0.00 0.00 75 1014.7
20200814095307 46 22 0.0 0.0 0.00 0.00 0.00 75 1014.7
20200814094807 47 22 0.0 0.0 0.00 0.00 0.00 74 1014.7
20200814094307 47 22 0.0 0.0 0.00 0.00 0.00 74 1014.7
20200814093805 47 33 0.0 2.0 0.00 0.00 0.00 74 1014.7
20200814093307 47 358 0.0 1.0 0.00 0.00 0.00 74 1014.7
20200814092809 48 3 1.0 1.0 0.00 0.00 0.00 74 1014.7
20200814092306 48 309 0.0 1.0 0.00 0.00 0.00 73 1014.6
20200814091308 49 326 0.0 2.0 0.00 0.00 0.00 73 1014.7
20200814090806 49 22 0.0 1.0 0.00 0.00 0.00 72 1014.7
20200814090312 49 27 1.0 2.0 0.00 0.00 0.00 72 1014.7
20200814085806 49 34 1.0 1.0 0.00 0.00 0.00 72 1014.7
20200814085306 49 12 1.0 2.0 0.00 0.00 0.00 72 1014.7
20200814084807 49 261 1.0 2.0 0.00 0.00 0.00 72 1014.6
20200814084311 50 0 2.0 3.0 0.00 0.00 0.00 72 1014.6
20200814083805 50 6 2.0 2.0 0.00 0.00 0.00 71 1014.5
20200814083305 50 299 2.0 2.0 0.00 0.00 0.00 71 1014.5
20200814082806 50 350 2.0 2.0 0.00 0.00 0.00 71 1014.4
20200814082306 50 315 2.0 2.0 0.00 0.00 0.00 71 1014.4
20200814081806 50 321 2.0 2.0 0.00 0.00 0.00 71 1014.4
20200814081306 51 316 3.0 5.0 0.00 0.00 0.00 71 1014.5
20200814080805 51 254 2.0 2.0 0.00 0.00 0.00 70 1014.5
20200814080305 51 283 2.0 3.0 0.00 0.00 0.00 70 1014.4
20200814075808 51 241 2.0 2.0 0.00 0.00 0.00 70 1014.4
20200814075314 51 31 2.0 3.0 0.00 0.00 0.00 70 1014.4
20200814074805 52 22 2.0 2.0 0.00 0.00 0.00 69 1014.3
20200814074306 52 326 2.0 5.0 0.00 0.00 0.00 69 1014.3
20200814073806 52 171 3.0 5.0 0.00 0.00 0.00 69 1014.3
20200814073306 52 334 2.0 2.0 0.00 0.00 0.00 69 1014.3
20200814072806 52 7 2.0 2.0 0.00 0.00 0.00 68 1014.3
20200814072306 53 53 2.0 2.0 0.00 0.00 0.00 68 1014.2
20200814071810 53 339 2.0 3.0 0.00 0.00 0.00 67 1014.2
20200814071309 53 0 2.0 3.0 0.00 0.00 0.00 67 1014.3
20200814070810 53 347 2.0 2.0 0.00 0.00 0.00 67 1014.3
20200814070305 54 270 2.0 2.0 0.00 0.00 0.00 66 1014.3
20200814065805 54 249 3.0 3.0 0.00 0.00 0.00 66 1014.3
20200814065314 54 11 2.0 3.0 0.00 0.00 0.00 65 1014.3
20200814064806 54 0 2.0 2.0 0.00 0.00 0.00 64 1014.3
20200814064305 55 300 3.0 5.0 0.00 0.00 0.00 64 1014.3
20200814063806 55 17 3.0 6.0 0.00 0.00 0.00 64 1014.3
20200814063304 55 308 3.0 6.0 0.00 0.00 0.00 64 1014.3
20200814062804 55 10 2.0 3.0 0.00 0.00 0.00 64 1014.3
20200814062306 55 312 2.0 3.0 0.00 0.00 0.00 65 1014.4
20200814061805 55 336 2.0 3.0 0.00 0.00 0.00 65 1014.4
20200814061306 55 324 2.0 5.0 0.00 0.00 0.00 66 1014.3
20200814060806 55 132 3.0 8.0 0.00 0.00 0.00 66 1014.3
20200814060306 55 359 2.0 7.0 0.00 0.00 0.00 66 1014.0
20200814055805 54 22 3.0 7.0 0.00 0.00 0.00 65 1014.0
20200814055305 54 40 3.0 5.0 0.00 0.00 0.00 65 1014.0
20200814054805 54 343 2.0 2.0 0.00 0.00 0.00 65 1014.0
20200814054305 54 352 1.0 2.0 0.00 0.00 0.00 65 1014.0
20200814053805 54 21 3.0 3.0 0.00 0.00 0.00 65 1014.0
20200814053305 54 357 1.0 1.0 0.00 0.00 0.00 65 1014.0
20200814052805 54 359 1.0 2.0 0.00 0.00 0.00 65 1013.9
20200814052305 54 18 1.0 2.0 0.00 0.00 0.00 65 1013.9
20200814051805 54 35 1.0 2.0 0.00 0.00 0.00 65 1013.9
20200814051306 54 9 2.0 5.0 0.00 0.00 0.00 65 1013.8
20200814050805 54 10 3.0 5.0 0.00 0.00 0.00 64 1013.8
20200814050305 55 33 2.0 3.0 0.00 0.00 0.00 63 1013.7
20200814045805 55 15 4.0 6.0 0.00 0.00 0.00 62 1013.7
20200814045306 55 13 3.0 6.0 0.00 0.00 0.00 61 1013.7
20200814044806 55 8 3.0 5.0 0.00 0.00 0.00 60 1013.7
20200814044306 55 352 2.0 2.0 0.00 0.00 0.00 59 1013.7
20200814043805 55 269 2.0 2.0 0.00 0.00 0.00 58 1013.7
20200814043305 55 102 1.0 2.0 0.00 0.00 0.00 60 1013.7
20200814042805 55 52 3.0 6.0 0.00 0.00 0.00 61 1013.5
20200814042304 55 7 5.0 6.0 0.00 0.00 0.00 60 1013.4
20200814041806 56 22 2.0 2.0 0.00 0.00 0.00 57 1013.4
20200814041305 56 0 0.0 0.0 0.00 0.00 0.00 57 1013.4
20200814040805 56 22 0.0 5.0 0.00 0.00 0.00 57 1013.4
20200814040305 57 22 0.0 0.0 0.00 0.00 0.00 57 1013.4
20200814035806 58 22 0.0 0.0 0.00 0.00 0.00 57 1013.4
20200814035305 58 22 1.0 1.0 0.00 0.00 0.00 55 1013.4
20200814034806 59 37 1.0 2.0 0.00 0.00 0.00 54 1013.3
20200814034305 59 38 2.0 2.0 0.00 0.00 0.00 51 1013.3
20200814033805 59 13 0.0 1.0 0.00 0.00 0.00 50 1013.2
20200814033307 60 7 1.0 1.0 0.00 0.00 0.00 49 1013.2
20200814032805 61 46 0.0 0.0 0.00 0.00 0.00 48 1013.1
20200814032305 61 289 0.0 1.0 0.00 0.00 0.00 47 1013.0
20200814031805 61 36 1.0 2.0 0.00 0.00 0.00 47 1013.0
20200814031306 62 22 0.0 0.0 0.00 0.00 0.00 46 1012.8
20200814030805 62 292 0.0 1.0 0.00 0.00 0.00 46 1012.8
20200814030305 62 22 1.0 2.0 0.00 0.00 0.00 45 1012.7
20200814025805 63 347 2.0 2.0 0.00 0.00 0.00 45 1012.7
20200814025304 64 44 2.0 2.0 0.00 0.00 0.00 44 1012.7
20200814024806 64 11 2.0 3.0 0.00 0.00 0.00 43 1012.7
20200814024305 64 239 2.0 3.0 0.00 0.00 0.00 41 1012.7
20200814023805 65 25 3.0 5.0 0.00 0.00 0.00 39 1012.5
20200814023306 65 16 2.0 3.0 0.00 0.00 0.00 38 1012.5
20200814022805 66 73 1.0 2.0 0.00 0.00 0.00 37 1012.4
20200814022307 67 259 1.0 3.0 0.00 0.00 0.00 37 1012.4
20200814021805 67 92 2.0 3.0 0.00 0.00 0.00 37 1012.4
20200814021305 68 311 2.0 5.0 0.00 0.00 0.00 35 1012.1
20200814020805 68 15 2.0 3.0 0.00 0.00 0.00 35 1012.1
20200814020305 68 356 3.0 6.0 0.00 0.00 0.00 33 1012.2
20200814015805 69 99 3.0 6.0 0.00 0.00 0.00 32 1012.2
20200814015306 69 70 3.0 5.0 0.00 0.00 0.00 31 1012.2
20200814014805 69 315 3.0 6.0 0.00 0.00 0.00 31 1011.9
20200814014305 69 156 3.0 5.0 0.00 0.00 0.00 31 1011.9
20200814013805 70 342 2.0 2.0 0.00 0.00 0.00 30 1011.8
20200814013306 70 134 2.0 5.0 0.00 0.00 0.00 29 1011.8
20200814012806 70 52 2.0 3.0 0.00 0.00 0.00 30 1011.8
20200814012305 71 9 2.0 6.0 0.00 0.00 0.00 30 1011.8
20200814011805 71 11 3.0 6.0 0.00 0.00 0.00 30 1011.8
20200814011306 70 22 2.0 5.0 0.00 0.00 0.00 31 1011.6
20200814010805 70 350 5.0 7.0 0.00 0.00 0.00 31 1011.6
20200814010305 70 305 2.0 3.0 0.00 0.00 0.00 32 1011.7
20200814005805 70 330 2.0 6.0 0.00 0.00 0.00 30 1011.7
20200814005305 70 173 3.0 3.0 0.00 0.00 0.00 28 1011.7
20200814004805 70 40 4.0 6.0 0.00 0.00 0.00 28 1011.5
20200814004306 71 17 2.0 5.0 0.00 0.00 0.00 29 1011.5
20200814003805 71 229 2.0 3.0 0.00 0.00 0.00 29 1011.6
20200814003305 72 253 1.0 3.0 0.00 0.00 0.00 28 1011.6
20200814002805 72 225 2.0 5.0 0.00 0.00 0.00 27 1011.5
20200814002305 72 175 4.0 7.0 0.00 0.00 0.00 27 1011.4
20200814001807 73 226 3.0 7.0 0.00 0.00 0.00 27 1011.4
20200814001311 73 22 5.0 7.0 0.00 0.00 0.00 26 1011.4
20200814000805 74 239 3.0 6.0 0.00 0.00 0.00 26 1011.4
20200814000306 74 62 3.0 6.0 0.00 0.00 0.00 26 1011.3
20200813235805 74 284 2.0 5.0 0.00 0.00 0.00 26 1011.3
20200813235305 75 25 3.0 5.0 0.00 0.00 0.00 26 1011.3
20200813234807 76 284 3.0 6.0 0.00 0.00 0.00 27 1011.3
20200813234305 77 48 2.0 6.0 0.00 0.00 0.00 26 1011.3
20200813233804 77 27 4.0 8.0 0.00 0.00 0.00 24 1011.3
20200813233304 78 337 3.0 6.0 0.00 0.00 0.00 25 1011.3
20200813232804 77 147 5.0 7.0 0.00 0.00 0.00 25 1011.4
20200813232305 77 324 4.0 5.0 0.00 0.00 0.00 26 1011.4
20200813231805 76 12 4.0 8.0 0.00 0.00 0.00 26 1011.4
20200813231305 75 247 3.0 6.0 0.00 0.00 0.00 27 1011.3
20200813230805 74 357 3.0 6.0 0.00 0.00 0.00 27 1011.3
20200813230305 75 235 4.0 6.0 0.00 0.00 0.00 27 1011.3
20200813225805 76 356 3.0 6.0 0.00 0.00 0.00 27 1011.3
20200813225305 76 294 3.0 7.0 0.00 0.00 0.00 26 1011.3
20200813224805 78 298 4.0 7.0 0.00 0.00 0.00 25 1011.3
20200813224305 77 210 6.0 8.0 0.00 0.00 0.00 26 1011.3
20200813223805 78 94 7.0 9.0 0.00 0.00 0.00 25 1011.2
20200813223305 78 306 6.0 10.0 0.00 0.00 0.00 25 1011.2
20200813222806 77 215 5.0 6.0 0.00 0.00 0.00 26 1011.3
20200813222305 77 190 3.0 6.0 0.00 0.00 0.00 26 1011.3
20200813221805 78 356 4.0 6.0 0.00 0.00 0.00 25 1011.3
20200813221305 80 13 5.0 6.0 0.00 0.00 0.00 24 1011.3
20200813220805 79 279 5.0 7.0 0.00 0.00 0.00 25 1011.3
20200813220305 79 98 3.0 6.0 0.00 0.00 0.00 25 1011.4
20200813215805 79 220 4.0 6.0 0.00 0.00 0.00 25 1011.4
20200813215305 78 213 4.0 7.0 0.00 0.00 0.00 24 1011.4
20200813214804 78 253 6.0 7.0 0.00 0.00 0.00 26 1011.4
20200813214305 78 225 6.0 6.0 0.00 0.00 0.00 27 1011.4
20200813213805 78 68 4.0 5.0 0.00 0.00 0.00 27 1011.4
20200813213304 76 242 4.0 6.0 0.00 0.00 0.00 29 1011.4
20200813212806 76 247 3.0 6.0 0.00 0.00 0.00 27 1011.4
20200813212305 75 278 5.0 7.0 0.00 0.00 0.00 27 1011.5
20200813211806 74 228 5.0 8.0 0.00 0.00 0.00 26 1011.5
20200813211305 75 232 4.0 8.0 0.00 0.00 0.00 27 1011.6
20200813210805 75 118 5.0 6.0 0.00 0.00 0.00 28 1011.6
20200813210312 76 318 5.0 7.0 0.00 0.00 0.00 27 1011.4
20200813205805 78 169 4.0 7.0 0.00 0.00 0.00 26 1011.4
20200813205309 79 320 5.0 7.0 0.00 0.00 0.00 25 1011.4
20200813204806 79 352 4.0 6.0 0.00 0.00 0.00 27 1011.5